Weather History for Cherokee, IA

Change the Weather History Date:

Monday, January 20, 2014

  Actual Average Record
Temperature  
Mean Temperature 18 °F -  
Max Temperature 39 °F 26 °F 50 °F (1981)
Min Temperature -4 °F 3 °F -35 °F (1970)
Degree Days  
Heating Degree Days 48    
Moisture  
Dew Point 19 °F    
Average Humidity 84    
Maximum Humidity 96    
Minimum Humidity 68    
Precipitation  
Precipitation 0.00 in - - ()
Sea Level Pressure  
Sea Level Pressure 30.04 in    
Wind  
Wind Speed 9 mph (NW)    
Max Wind Speed 29 mph    
Max Gust Speed 37 mph    
Visibility 8 miles    
Events Rain , Snow    
Averages and records for this station are not official NWS values.
T = Trace of Precipitation, MM = Missing Value Source: NWS Daily Summary

Daily Weather History Graph

Daily Weather History Graph

Search for Another Location

Airport:

Trip Planner

Search our weather history database for the weather conditions in past years. The results will help you decide how hot, cold, wet, or windy it might be!

Date:

Astronomy

Jan. 20, 2014 Rise Set
Actual Time 7:46 AM CST 5:20 PM CST
Civil Twilight 7:16 AM CST 5:50 PM CST
Nautical Twilight 6:41 AM CST 6:25 PM CST
Astronomical Twilight 6:07 AM CST 6:59 PM CST
Moon 10:03 PM CST (1/20) 9:40 AM CST (1/20)
Length of Visible Light 10h 34m
Length of Day
9h 33m
Waning Gibbous, 82% of the Moon is Illuminated
Jan 20
Waning Gibbous
Jan 23
Last Quarter
Jan 30
New
Feb 6
First Quarter
Feb 14
Full

Hourly Weather History & Observations

Time (CST) Temp. Windchill Dew Point Humidity Pressure Visibility Wind Dir Wind Speed Gust Speed Precip Events Conditions
12:15 AM 33.4 °F 27.3 °F 28.9 °F 84% 29.80 in 10.0 mi West 6.9 mph - N/A   Clear
12:35 AM 32.0 °F 26.4 °F 28.2 °F 86% 29.81 in 10.0 mi West 5.8 mph - N/A   Clear
12:55 AM 30.4 °F - 27.0 °F 87% 29.80 in 10.0 mi Calm Calm - N/A   Clear
1:15 AM 30.2 °F 23.4 °F 27.1 °F 88% 29.81 in 10.0 mi WNW 6.9 mph - N/A   Clear
1:40 AM 31.8 °F 25.4 °F 28.0 °F 86% 29.81 in 10.0 mi WNW 6.9 mph - N/A   Clear
1:55 AM 32.2 °F 25.8 °F 28.2 °F 85% 29.82 in 10.0 mi WNW 6.9 mph - N/A   Clear
2:15 AM 32.2 °F 26.7 °F 28.2 °F 85% 29.82 in 10.0 mi WNW 5.8 mph - N/A   Clear
2:35 AM 32.0 °F 27.5 °F 27.9 °F 85% 29.84 in 10.0 mi WSW 4.6 mph - N/A   Clear
2:55 AM 31.6 °F 28.3 °F 28.0 °F 87% 29.84 in 10.0 mi WSW 3.5 mph - N/A   Clear
3:15 AM 31.1 °F - 28.0 °F 88% 29.85 in 10.0 mi Calm Calm - N/A   Clear
3:35 AM 31.6 °F - 27.9 °F 86% 29.86 in 10.0 mi Calm Calm - N/A   Clear
3:55 AM 31.5 °F - 28.0 °F 87% 29.86 in 10.0 mi Calm Calm - N/A   Clear
4:15 AM 30.6 °F 25.8 °F 27.9 °F 90% 29.86 in 10.0 mi SW 4.6 mph - N/A   Clear
4:35 AM 30.2 °F - 28.0 °F 92% 29.86 in 10.0 mi Calm Calm - N/A   Clear
4:55 AM 29.1 °F 24.1 °F 27.3 °F 93% 29.87 in 10.0 mi SW 4.6 mph - N/A   Clear
5:15 AM 30.0 °F 25.2 °F 27.9 °F 92% 29.87 in 10.0 mi WSW 4.6 mph - N/A   Clear
5:35 AM 29.3 °F - 27.5 °F 93% 29.88 in 10.0 mi Calm Calm - N/A   Clear
5:55 AM 29.8 °F 26.3 °F 28.2 °F 94% 29.89 in 10.0 mi SW 3.5 mph - N/A   Clear
6:15 AM 30.9 °F - 28.4 °F 90% 29.88 in 10.0 mi Calm Calm - N/A   Clear
6:35 AM 29.7 °F 26.1 °F 27.7 °F 92% 29.89 in 10.0 mi SW 3.5 mph - N/A   Clear
6:55 AM 29.1 °F 25.4 °F 27.5 °F 94% 29.89 in 10.0 mi SW 3.5 mph - N/A   Clear
7:15 AM 28.4 °F 23.3 °F 27.3 °F 96% 29.90 in 10.0 mi SW 4.6 mph - N/A   Clear
7:35 AM 28.2 °F 23.1 °F 26.8 °F 94% 29.91 in 10.0 mi WSW 4.6 mph - N/A   Clear
7:55 AM 28.4 °F 22.2 °F 27.0 °F 94% 29.92 in 10.0 mi West 5.8 mph - N/A   Clear
8:15 AM 28.2 °F 24.4 °F 26.6 °F 94% 29.92 in 10.0 mi WSW 3.5 mph - N/A   Clear
8:35 AM 28.2 °F 24.4 °F 26.8 °F 94% 29.92 in 10.0 mi West 3.5 mph - N/A   Clear
8:55 AM 29.3 °F 23.2 °F 27.5 °F 93% 29.94 in 10.0 mi West 5.8 mph - N/A   Clear
9:15 AM 31.5 °F 24.9 °F 28.9 °F 90% 29.94 in 10.0 mi West 6.9 mph - N/A   Scattered Clouds
9:35 AM 32.0 °F 26.4 °F 28.9 °F 88% 29.94 in 10.0 mi West 5.8 mph - N/A   Overcast
9:55 AM 32.5 °F 28.1 °F 29.7 °F 89% 29.95 in 10.0 mi West 4.6 mph - N/A   Overcast
10:15 AM 35.4 °F 27.3 °F 30.9 °F 84% 29.95 in 10.0 mi West 11.5 mph - N/A   Scattered Clouds
10:35 AM 37.4 °F 30.3 °F 30.4 °F 76% 29.96 in 10.0 mi WNW 10.4 mph 18.4 mph N/A   Clear
10:55 AM 37.8 °F 29.8 °F 29.5 °F 72% 29.96 in 10.0 mi WNW 12.7 mph 20.7 mph N/A   Mostly Cloudy
11:15 AM 38.7 °F 30.9 °F 29.8 °F 71% 29.95 in 10.0 mi WNW 12.7 mph 23.0 mph N/A   Mostly Cloudy
11:35 AM 39.6 °F 30.3 °F 29.8 °F 68% 29.95 in 10.0 mi WNW 18.4 mph 24.2 mph N/A   Mostly Cloudy
11:55 AM 38.7 °F 29.8 °F 29.1 °F 69% 29.94 in 10.0 mi WNW 16.1 mph 24.2 mph N/A   Overcast
12:15 PM 37.4 °F 27.8 °F 28.9 °F 71% 29.94 in 10.0 mi WNW 17.3 mph 24.2 mph N/A   Overcast
12:35 PM 36.0 °F 26.7 °F 30.0 °F 79% 29.95 in 10.0 mi NW 15.0 mph 21.9 mph N/A Snow Light Snow
12:55 PM 36.0 °F 27.5 °F 30.0 °F 79% 29.95 in 10.0 mi NW 12.7 mph 24.2 mph N/A   Overcast
1:15 PM 36.3 °F 28.4 °F 30.0 °F 78% 29.94 in 10.0 mi WNW 11.5 mph 17.3 mph N/A   Overcast
1:35 PM 36.0 °F 27.5 °F 30.0 °F 79% 29.94 in 10.0 mi WNW 12.7 mph 23.0 mph N/A   Overcast
1:55 PM 35.8 °F 26.5 °F 31.3 °F 84% 29.94 in 7.0 mi WNW 15.0 mph 19.6 mph N/A Rain Light Rain
2:15 PM 35.4 °F 26.4 °F 32.4 °F 89% 29.94 in 10.0 mi WNW 13.8 mph 19.6 mph N/A Snow Light Snow
2:35 PM 35.1 °F 26.9 °F 33.1 °F 92% 29.94 in 7.0 mi WNW 11.5 mph - N/A Rain Light Rain
2:55 PM 31.6 °F 22.1 °F 29.7 °F 92% 29.95 in 1.8 mi North 12.7 mph - N/A Snow Light Snow
3:15 PM 27.9 °F 16.3 °F 26.1 °F 93% 29.98 in 1.8 mi North 15.0 mph - N/A Snow Light Snow
3:35 PM 25.7 °F 11.9 °F 23.7 °F 92% 30.01 in 2.0 mi North 19.6 mph 26.5 mph N/A Snow Light Snow
3:55 PM 23.7 °F 9.7 °F 21.2 °F 90% 30.05 in 1.5 mi North 18.4 mph 28.8 mph N/A Snow Light Snow
4:15 PM 23.0 °F 8.3 °F 20.3 °F 89% 30.08 in 2.0 mi North 19.6 mph 26.5 mph N/A Snow Light Snow
4:35 PM 21.4 °F 5.8 °F 18.1 °F 87% 30.11 in 1.5 mi North 20.7 mph 33.4 mph N/A Snow Light Snow
4:55 PM 19.4 °F 2.1 °F 14.9 °F 83% 30.14 in 4.0 mi North 24.2 mph 33.4 mph N/A Snow Light Snow
5:15 PM 17.4 °F -1.9 °F 13.5 °F 84% 30.17 in 1.5 mi North 28.8 mph 35.7 mph N/A Snow Light Snow
5:35 PM 15.1 °F -3.7 °F 10.9 °F 84% 30.20 in 2.0 mi North 24.2 mph 34.5 mph N/A Snow Light Snow
5:55 PM 13.8 °F -5.3 °F 10.0 °F 85% 30.22 in 2.5 mi North 24.2 mph 36.8 mph N/A Snow Light Snow
6:15 PM 12.6 °F -6.2 °F 6.6 °F 77% 30.25 in 7.0 mi North 21.9 mph 34.5 mph N/A Snow Light Snow
6:35 PM 11.3 °F -6.0 °F 7.9 °F 86% 30.26 in 1.2 mi North 17.3 mph 28.8 mph N/A Snow Light Snow
6:55 PM 9.5 °F -9.8 °F 5.0 °F 82% 30.28 in 4.0 mi North 20.7 mph 31.1 mph N/A Snow Light Snow
7:15 PM 8.6 °F -10.0 °F 4.1 °F 82% 30.31 in 4.0 mi North 18.4 mph 31.1 mph N/A Snow Light Snow
7:35 PM 6.4 °F -14.3 °F 1.2 °F 79% 30.32 in 10.0 mi North 21.9 mph 33.4 mph N/A   Mostly Cloudy
7:55 PM 5.9 °F -15.0 °F -0.0 °F 77% 30.34 in 10.0 mi NNW 21.9 mph 28.8 mph N/A   Mostly Cloudy
8:15 PM 5.0 °F -14.7 °F -0.0 °F 80% 30.37 in 7.0 mi North 18.4 mph 29.9 mph N/A   Overcast
8:35 PM 3.9 °F -17.1 °F -1.8 °F 77% 30.38 in 10.0 mi North 20.7 mph 29.9 mph N/A   Mostly Cloudy
8:55 PM 2.7 °F -16.6 °F -2.7 °F 78% 30.39 in 10.0 mi North 16.1 mph 26.5 mph N/A   Mostly Cloudy
9:15 PM 1.4 °F -18.2 °F -4.4 °F 77% 30.41 in 10.0 mi NNW 16.1 mph 26.5 mph N/A   Overcast
9:35 PM -0.2 °F -20.9 °F -6.3 °F 75% 30.41 in 10.0 mi North 17.3 mph 31.1 mph N/A   Scattered Clouds
9:50 PM -0.6 °F -20.1 °F -6.0 °F 78% 30.42 in 10.0 mi North 15.0 mph 23.0 mph N/A   Scattered Clouds
10:15 PM -1.5 °F -18.1 °F -7.6 °F 75% 30.43 in 10.0 mi North 10.4 mph 19.6 mph N/A   Mostly Cloudy
10:35 PM -2.6 °F -21.1 °F -8.5 °F 76% 30.44 in 10.0 mi North 12.7 mph 16.1 mph N/A   Scattered Clouds
10:55 PM -3.1 °F -19.1 °F -9.6 °F 74% 30.45 in 10.0 mi North 9.2 mph 20.7 mph N/A   Clear
11:15 PM -3.6 °F -19.7 °F -9.6 °F 76% 30.46 in 10.0 mi NNW 9.2 mph - N/A   Clear
11:35 PM -4.0 °F -23.0 °F -10.3 °F 74% 30.47 in 10.0 mi North 12.7 mph 16.1 mph N/A   Clear
11:55 PM -4.5 °F -21.9 °F -11.2 °F 73% 30.47 in 10.0 mi North 10.4 mph 18.4 mph N/A   Clear